Location: Ar Ranvel
(48.3000°N, 4.8833°W)
Time: 07:41:16
(UTC+00:00)

USA 238 DEB - Pass Details

Date: 16 June 2021
Orbit: 991 x 1221 km, 63.4° (Epoch: 16 July)

Event Time Altitude Azimuth Distance (km) Brightness Sun altitude
Rises 21:43:42 0° 237° (WSW) 3,728 6.6 -10.2°
Reaches altitude 10° 21:46:18 10° 241° (WSW) 2,801 6.0 -10.5°
Maximum altitude 21:52:47 56° 320° (NW) 1,234 4.5 -11.1°
Drops below altitude 10° 21:59:38 10° 38° (NE) 2,959 6.3 -11.7°
Sets 22:02:28 0° 43° (NE) 3,955 6.9 -11.9°
